TimeCST,TemperatureF,Dew PointF,Humidity,Sea Level PressureIn,VisibilityMPH,Wind Direction,Wind SpeedMPH,Gust SpeedMPH,PrecipitationIn,Events,Conditions,WindDirDegrees,DateUTC
12:27 AM,50.0,48.2,94,29.47,3.0,SSE,12.7,-,0.10,Rain-Thunderstorm,Heavy Rain,160,2012-02-29 06:27:00
12:43 AM,51.8,48.2,88,29.48,3.0,South,13.8,-,0.19,Rain,Rain,180,2012-02-29 06:43:00
12:50 AM,50.0,48.2,94,29.48,2.0,South,13.8,-,0.26,Rain,Heavy Rain,180,2012-02-29 06:50:00
12:53 AM,50.0,48.9,96,29.44,2.0,SE,13.8,18.4,0.27,Rain,Heavy Rain,140,2012-02-29 06:53:00
1:03 AM,50.0,48.2,94,29.39,5.0,ESE,9.2,-,0.01,Rain,Light Rain,120,2012-02-29 07:03:00
1:12 AM,50.0,48.2,94,29.39,7.0,SE,12.7,-,0.01,,Scattered Clouds,140,2012-02-29 07:12:00
1:53 AM,50.0,48.9,96,29.40,9.0,South,10.4,-,0.01,,Scattered Clouds,170,2012-02-29 07:53:00
2:53 AM,53.1,48.0,83,29.40,10.0,SW,21.9,28.8,N/A,,Scattered Clouds,220,2012-02-29 08:53:00
3:53 AM,50.0,45.0,83,29.41,10.0,SW,21.9,33.4,N/A,,Clear,230,2012-02-29 09:53:00
4:53 AM,45.0,36.0,71,29.43,10.0,SW,23.0,29.9,N/A,,Clear,230,2012-02-29 10:53:00
5:53 AM,41.0,30.0,65,29.47,10.0,WSW,23.0,36.8,N/A,,Clear,240,2012-02-29 11:53:00
6:53 AM,37.9,28.9,70,29.49,10.0,WSW,17.3,35.7,N/A,,Clear,240,2012-02-29 12:53:00
7:53 AM,37.9,28.0,68,29.49,10.0,SW,26.5,38.0,N/A,,Clear,230,2012-02-29 13:53:00
8:53 AM,39.0,28.0,65,29.49,10.0,WSW,28.8,40.3,N/A,,Clear,240,2012-02-29 14:53:00
9:53 AM,41.0,28.9,62,29.50,10.0,WSW,32.2,39.1,N/A,,Scattered Clouds,250,2012-02-29 15:53:00
10:53 AM,42.1,28.9,60,29.51,10.0,WSW,32.2,47.2,N/A,,Mostly Cloudy,250,2012-02-29 16:53:00
11:53 AM,41.0,27.0,57,29.53,10.0,WSW,31.1,44.9,N/A,,Overcast,250,2012-02-29 17:53:00
12:53 PM,39.0,26.1,60,29.55,10.0,West,28.8,43.7,N/A,,Overcast,260,2012-02-29 18:53:00
1:53 PM,37.9,26.1,62,29.56,10.0,WSW,33.4,46.0,N/A,,Overcast,250,2012-02-29 19:53:00
2:53 PM,37.0,26.1,65,29.58,10.0,West,23.0,35.7,N/A,,Overcast,260,2012-02-29 20:53:00
3:53 PM,37.0,25.0,62,29.62,10.0,West,26.5,33.4,N/A,,Overcast,270,2012-02-29 21:53:00
4:53 PM,37.0,25.0,62,29.66,10.0,West,28.8,38.0,N/A,,Overcast,270,2012-02-29 22:53:00
5:53 PM,36.0,25.0,64,29.70,10.0,West,20.7,34.5,N/A,,Overcast,270,2012-02-29 23:53:00
6:53 PM,36.0,25.0,64,29.73,10.0,West,21.9,32.2,N/A,,Overcast,270,2012-03-01 00:53:00
7:53 PM,35.1,25.0,67,29.76,10.0,West,19.6,28.8,N/A,,Overcast,270,2012-03-01 01:53:00
8:50 PM,35.6,24.8,65,29.76,10.0,West,24.2,33.4,N/A,,Overcast,280,2012-03-01 02:50:00
8:53 PM,35.1,25.0,67,29.78,10.0,WNW,23.0,33.4,N/A,,Overcast,290,2012-03-01 02:53:00
9:53 PM,34.0,26.1,73,29.80,10.0,West,21.9,27.6,N/A,,Overcast,280,2012-03-01 03:53:00
10:53 PM,33.1,25.0,72,29.82,10.0,West,12.7,-,N/A,,Mostly Cloudy,270,2012-03-01 04:53:00
11:53 PM,33.1,26.1,75,29.82,10.0,WNW,15.0,-,N/A,,Overcast,290,2012-03-01 05:53:00